Regional Weather Roundup
Issued by NWS

Home | Current Version | Previous Version | Text Only | Print | Product List | Glossary On
Versions: 1 2 3 4 5 6 7 8 9 10 11 12 13 14 15 16 17 18 19 20 21 22 23 24 25 26 27 28 29 30 31 32 33 34 35 36 37 38 39 40 41 42 43 44 45 46 47 48 49 50
000
ASUS43 KLSX 101207
RWRMO

WEATHER SUMMARY FOR MISSOURI
NATIONAL WEATHER SERVICE SPRINGFIELD MO
700 AM CDT THU JUL 10 2014

NOTE: "FAIR" INDICATES FEW OR NO CLOUDS BELOW 12,000 FEET WITH NO
       SIGNIFICANT WEATHER AND/OR OBSTRUCTIONS TO VISIBILITY.
       CURRENT SKY AND/OR WEATHER CONDITIONS ARE NOT AVAILABLE FOR
       CHILLICOTHE AND FARMINGTON.

MOZ001>031-035>038-043-044-053-054-101300-
...NORTHERN AND WESTERN MISSOURI...

CITY           SKY/WX    TMP DP  RH WIND       PRES   REMARKS
KANSAS CTY INT CLOUDY    69  58  67 SE10      30.07R
6HR MIN TEMP:  67; 6HR MAX TEMP:  72;

KANSAS C DTWN  FAIR      72  59  63 S9        30.07R
6HR MIN TEMP:  71; 6HR MAX TEMP:  75;

LEE`S SUMMIT   FAIR      69  59  70 SE7       30.09R
6HR MIN TEMP:  67; 6HR MAX TEMP:  71;

ST JOSEPH      FAIR      69  59  70 S7        30.07R
6HR MIN TEMP:  68; 6HR MAX TEMP:  72;

CHILLICOTHE      N/A     67  60  78 SE6       30.11R
6HR MIN TEMP:  65; 6HR MAX TEMP:  69;

KIRKSVILLE     FAIR      61  57  87 CALM      30.13R
6HR MIN TEMP:  57; 6HR MAX TEMP:  63;


$$
MOZ066>068-077>081-088>096-101>105-101300-
...SOUTHWEST MISSOURI...

CITY           SKY/WX    TMP DP  RH WIND       PRES   REMARKS
SPRINGFIELD    FAIR      66  60  81 SE5       30.09R
6HR MIN TEMP:  64; 6HR MAX TEMP:  71;

JOPLIN         FAIR      68  60  75 E3        30.08R
6HR MIN TEMP:  63; 6HR MAX TEMP:  70;


$$
MOZ032>034-039>042-045>050-055>058-069>072-101300-
...CENTRAL MISSOURI...

CITY           SKY/WX    TMP DP  RH WIND       PRES   REMARKS
COLUMBIA       FAIR      63  59  87 SE3       30.13R
6HR MIN TEMP:  61; 6HR MAX TEMP:  65;

JEFFERSON CITY FAIR      61  59  93 CALM      30.12R
6HR MIN TEMP:  60; 6HR MAX TEMP:  64;

ROLLA            N/A    N/A N/A N/A MISG      30.11R
SEDALIA        FAIR      66  61  84 SE6       30.12R
6HR MIN TEMP:  64; 6HR MAX TEMP:  67;

WHITEMAN AFB   FAIR      66  55  67 SE8       30.10R
OSAGE BEACH    FAIR      63  57  82 CALM      30.11R

$$
MOZ051-052-059>065-101300-
...EAST CENTRAL MISSOURI...

CITY           SKY/WX    TMP DP  RH WIND       PRES   REMARKS
ST LOUIS INTL  FAIR      68  59  73 CALM      30.12R
6HR MIN TEMP:  64; 6HR MAX TEMP:  70;

SPIRIT OF STL  FAIR      61  60  97 CALM      30.11R
6HR MIN TEMP:  57; 6HR MAX TEMP:  62;

ST CHARLES     FAIR      64  58  80 CALM      30.11R
6HR MIN TEMP:  61; 6HR MAX TEMP:  64;


$$
MOZ072>076-082>087-097>100-106>115-101300-
...SOUTH CENTRAL AND SOUTHEAST MISSOURI...

CITY           SKY/WX    TMP DP  RH WIND       PRES   REMARKS
CAPE GIRARDEAU FAIR      67  65  93 CALM      30.08R
6HR MIN TEMP:  64; 6HR MAX TEMP:  75;

FARMINGTON     PTSUNNY   61  57  88 CALM      30.13R
6HR MIN TEMP:  57; 6HR MAX TEMP:  70;

POPLAR BLUFF   FAIR      67  61  81 N3        30.06R
6HR MIN TEMP:  65; 6HR MAX TEMP:  70;

WEST PLAINS    FAIR      63  60  90 NE5       30.12R
6HR MIN TEMP:  59; 6HR MAX TEMP:  67;


$$


USA.gov is the U.S. government's official web portal to all federal, state and local government web resources and services.